Regional Weather Roundup
Issued by NWS Spokane, WA

Home | Current Version | Previous Version | Text Only | Print | Product List | Glossary On
Versions: 1 2 3 4 5 6 7 8 9 10 11 12 13 14 15 16 17 18 19 20 21 22 23 24 25 26 27 28 29 30 31 32 33 34 35 36 37 38 39 40 41 42 43 44 45 46 47 48 49 50
000
NZUS01 KOTX 301505
RWROTX
EASTERN WASHINGTON/NORTHERN IDAHO ROUNDUP
NATIONAL WEATHER SERVICE, SPOKANE WA
800 AM PDT MON MAY 30 2016

Note: "fair" indicated few or no clouds below 12,000 feet with no
significant weather and/or obstructions to visibility.

...NORTHEAST WASHINGTON AND NORTHERN IDAHO PANHANDLE...

CITY           SKY/WX    TMP DP  RH WIND       PRES   REMARKS
SPOKANE INTL   MOSUNNY   53  34  48 N7        30.21R
SPOKANE DOWNTO SUNNY     53  39  59 SW5       30.22R
COEUR D ALENE  SUNNY     52  39  62 SW5       30.19R
DEER PARK      SUNNY     50  40  68 S3        30.22R
SANDPOINT      SUNNY     50  39  66 CALM      30.21S
BONNERS FERRY  CLOUDY    46  41  81 CALM      30.22R

...SOUTHEAST WASHINGTON AND SOUTHERN IDAHO PANHANDLE...

CITY           SKY/WX    TMP DP  RH WIND       PRES   REMARKS
WALLA WALLA    SUNNY     57  38  48 W6        30.25R
PULLMAN/MOSCOW SUNNY     53  38  56 W10       30.24R
LEWISTON       SUNNY     61  38  42 VRB3      30.22R
LOWELL           N/A     55  48  77 CALM      30.21R

...COLUMBIA BASIN...

CITY           SKY/WX    TMP DP  RH WIND       PRES   REMARKS
EPHRATA        SUNNY     60  34  37 N10       30.23R
MOSES LAKE     SUNNY     59  33  37 NW7       30.24R
TRI CITIES     SUNNY     57  41  55 CALM      30.26R
HERMISTON      SUNNY     58  43  57 W5        30.25R
PENDLETON      SUNNY     57  38  48 N5        30.25R

...EAST SLOPES CASCADES...

CITY           SKY/WX    TMP DP  RH WIND       PRES   REMARKS
THE DALLES     SUNNY     58  44  60 NE3       30.25S
YAKIMA         SUNNY     56  36  47 CALM      30.27R
ELLENSBURG     SUNNY     50  38  63 E5        30.26R
STAMPEDE PASS  SUNNY     41  34  76 VRB3      30.26S
WENATCHEE      SUNNY     55  35  47 NW13      30.25R
OMAK           MOSUNNY   53  37  54 N7        30.24S

...SOUTHERN BRITISH COLUMBIA...

CITY           SKY/WX    TMP DP  RH WIND       PRES   REMARKS

...WESTERN MONTANA...

CITY           SKY/WX    TMP DP  RH WIND       PRES   REMARKS
MISSOULA       SUNNY     57  40  52 NW7       30.14R

...NEIGHBORING CITIES...

CITY           SKY/WX    TMP DP  RH WIND       PRES   REMARKS
SEATTLE        MOSUNNY   54  45  71 N7        30.31S



USA.gov is the U.S. government's official web portal to all federal, state and local government web resources and services.